Radiation Dose at Monitoring Post of Fukushima Daini Nuclear Power Station
Date,Time,MP-1(microSv/h),MP-2(microSv/h),MP-3(microSv/h),MP-4(microSv/h),MP-5(microSv/h),MP-6(microSv/h),MP-7(microSv/h),Wind Direction,Wind Velocity(m/s),Rain
2017/05/21,00:00,0.376,0.228,0.393,0.362,0.327,0.190,0.153,northwest,5.2,No
2017/05/21,00:10,0.372,0.227,0.389,0.361,0.329,0.189,0.153,west-northwest,5.0,No
2017/05/21,00:20,0.376,0.228,0.393,0.362,0.328,0.189,0.153,west-northwest,5.3,No
2017/05/21,00:30,0.373,0.229,0.390,0.360,0.328,0.189,0.153,west,4.8,No
2017/05/21,00:40,0.375,0.227,0.393,0.363,0.329,0.190,0.152,west-northwest,3.9,No
2017/05/21,00:50,0.374,0.227,0.390,0.362,0.327,0.189,0.152,northwest,4.0,No
2017/05/21,01:00,0.377,0.227,0.393,0.362,0.330,0.189,0.152,west-northwest,4.0,No
2017/05/21,01:10,0.373,0.229,0.390,0.361,0.326,0.189,0.152,west-northwest,3.9,No
2017/05/21,01:20,0.375,0.228,0.391,0.364,0.329,0.189,0.152,west-northwest,3.2,No
2017/05/21,01:30,0.373,0.228,0.390,0.360,0.326,0.190,0.153,west-northwest,3.1,No
2017/05/21,01:40,0.374,0.229,0.394,0.362,0.328,0.190,0.153,west,2.6,No
2017/05/21,01:50,0.374,0.227,0.390,0.360,0.327,0.189,0.153,west,2.0,No
2017/05/21,02:00,0.376,0.228,0.392,0.361,0.329,0.190,0.153,west-southwest,1.3,No
2017/05/21,02:10,0.372,0.228,0.390,0.360,0.327,0.190,0.152,west-southwest,0.8,No
2017/05/21,02:20,0.376,0.228,0.393,0.363,0.326,0.188,0.153,west,1.3,No
2017/05/21,02:30,0.374,0.228,0.390,0.361,0.329,0.190,0.152,west-northwest,2.4,No
2017/05/21,02:40,0.374,0.228,0.393,0.364,0.326,0.190,0.153,west-northwest,3.0,No
2017/05/21,02:50,0.375,0.228,0.391,0.360,0.330,0.188,0.152,west,1.9,No
2017/05/21,03:00,0.375,0.229,0.395,0.363,0.327,0.189,0.153,west,1.2,No
2017/05/21,03:10,0.378,0.230,0.392,0.360,0.329,0.190,0.153,west-southwest,0.8,No
2017/05/21,03:20,0.373,0.228,0.393,0.364,0.328,0.191,0.153,southwest,1.1,No
2017/05/21,03:30,0.377,0.230,0.393,0.362,0.329,0.190,0.154,south-southwest,0.8,No
2017/05/21,03:40,0.375,0.230,0.393,0.365,0.329,0.190,0.153,-,CALM,No
2017/05/21,03:50,0.376,0.230,0.394,0.362,0.329,0.191,0.153,southwest,0.9,No
2017/05/21,04:00,0.376,0.229,0.392,0.364,0.330,0.189,0.154,-,CALM,No
2017/05/21,04:10,0.376,0.230,0.393,0.361,0.330,0.190,0.153,north-northwest,0.7,No
2017/05/21,04:20,0.375,0.229,0.391,0.363,0.329,0.190,0.153,west,0.8,No
2017/05/21,04:30,0.374,0.228,0.394,0.365,0.330,0.190,0.153,-,CALM,No
2017/05/21,04:40,0.375,0.229,0.392,0.362,0.331,0.189,0.153,southwest,1.0,No
2017/05/21,04:50,0.375,0.229,0.393,0.364,0.328,0.189,0.153,south-southwest,0.8,No
2017/05/21,05:00,0.375,0.229,0.394,0.360,0.331,0.190,0.155,southwest,1.0,No
2017/05/21,05:10,0.373,0.228,0.391,0.364,0.329,0.190,0.153,-,CALM,No
2017/05/21,05:20,0.377,0.230,0.394,0.363,0.329,0.190,0.153,-,CALM,No
2017/05/21,05:30,0.374,0.228,0.391,0.363,0.328,0.189,0.154,south-southeast,0.5,No
2017/05/21,05:40,0.376,0.228,0.393,0.362,0.328,0.190,0.153,-,CALM,No
2017/05/21,05:50,0.375,0.228,0.392,0.362,0.328,0.190,0.155,south,0.9,No
2017/05/21,06:00,0.377,0.230,0.394,0.363,0.326,0.189,0.153,south-southeast,0.9,No
2017/05/21,06:10,0.373,0.227,0.391,0.363,0.331,0.190,0.151,southeast,1.6,No
2017/05/21,06:20,0.377,0.230,0.394,0.363,0.326,0.191,0.154,east-southeast,1.5,No
2017/05/21,06:30,0.374,0.228,0.391,0.363,0.328,0.191,0.153,east,1.6,No
2017/05/21,06:40,0.376,0.228,0.392,0.363,0.329,0.189,0.153,east-southeast,0.7,No
2017/05/21,06:50,0.373,0.229,0.388,0.364,0.326,0.191,0.152,east-northeast,0.9,No
2017/05/21,07:00,0.377,0.228,0.392,0.359,0.330,0.189,0.154,east,0.8,No
2017/05/21,07:10,0.374,0.227,0.393,0.363,0.327,0.190,0.153,northeast,0.9,No
2017/05/21,07:20,0.373,0.229,0.388,0.363,0.328,0.189,0.153,northeast,2.2,No
2017/05/21,07:30,0.376,0.229,0.388,0.362,0.329,0.190,0.151,northeast,1.7,No
2017/05/21,07:40,0.372,0.229,0.386,0.357,0.326,0.189,0.151,east,1.3,No
2017/05/21,07:50,0.372,0.226,0.387,0.357,0.326,0.189,0.151,east-southeast,0.8,No
2017/05/21,08:00,0.375,0.227,0.389,0.356,0.330,0.189,0.152,east-northeast,0.8,No
2017/05/21,08:10,0.372,0.227,0.393,0.361,0.328,0.188,0.151,east,1.7,No
2017/05/21,08:20,0.369,0.227,0.392,0.364,0.327,0.190,0.152,east,1.5,No
2017/05/21,08:30,0.372,0.227,0.389,0.363,0.326,0.191,0.152,northeast,1.9,No
2017/05/21,08:40,0.377,0.227,0.390,0.361,0.324,0.190,0.154,northeast,2.5,No
2017/05/21,08:50,0.376,0.226,0.396,0.360,0.325,0.190,0.154,northeast,1.9,No
2017/05/21,09:00,0.373,0.227,0.392,0.360,0.325,0.189,0.152,east-northeast,1.1,No
2017/05/21,09:10,0.373,0.227,0.390,0.361,0.329,0.191,0.153,east,1.1,No
2017/05/21,09:20,0.370,0.227,0.394,0.361,0.330,0.190,0.153,east-northeast,1.0,No
2017/05/21,09:30,0.371,0.228,0.395,0.360,0.330,0.189,0.153,northeast,1.6,No
2017/05/21,09:40,0.371,0.230,0.390,0.361,0.328,0.189,0.152,northeast,2.5,No
2017/05/21,09:50,0.370,0.228,0.390,0.359,0.327,0.190,0.152,northeast,2.5,No
2017/05/21,10:00,0.374,0.228,0.394,0.360,0.326,0.191,0.153,northeast,2.9,No
2017/05/21,10:10,0.377,0.227,0.393,0.360,0.327,0.190,0.152,northeast,3.1,No
2017/05/21,10:20,0.376,0.227,0.391,0.362,0.325,0.189,0.152,northeast,3.3,No
2017/05/21,10:30,0.373,0.227,0.391,0.362,0.326,0.190,0.152,northeast,2.5,No
2017/05/21,10:40,0.374,0.227,0.389,0.363,0.327,0.190,0.152,northeast,1.4,No
2017/05/21,10:50,0.371,0.227,0.387,0.362,0.328,0.189,0.152,northeast,1.9,No
2017/05/21,11:00,0.371,0.230,0.388,0.361,0.328,0.190,0.152,northeast,1.1,No
2017/05/21,11:10,0.371,0.230,0.390,0.362,0.326,0.190,0.151,northeast,1.6,No
2017/05/21,11:20,0.372,0.229,0.390,0.363,0.326,0.191,0.151,northeast,1.1,No
2017/05/21,11:30,0.373,0.228,0.391,0.363,0.328,0.190,0.152,east-northeast,1.1,No
2017/05/21,11:40,0.371,0.227,0.392,0.361,0.327,0.190,0.151,-,CALM,No
2017/05/21,11:50,0.372,0.227,0.390,0.362,0.328,0.190,0.153,east-southeast,0.9,No
2017/05/21,12:00,0.374,0.227,0.390,0.362,0.327,0.190,0.154,east,2.4,No
2017/05/21,12:10,0.377,0.227,0.391,0.360,0.329,0.190,0.154,east,1.6,No
2017/05/21,12:20,0.376,0.230,0.391,0.363,0.327,0.190,0.153,southeast,1.0,No
2017/05/21,12:30,0.374,0.229,0.393,0.362,0.329,0.192,0.153,southeast,1.3,No
2017/05/21,12:40,0.372,0.229,0.390,0.361,0.327,0.191,0.152,south,1.4,No
2017/05/21,12:50,0.372,0.227,0.392,0.362,0.328,0.190,0.153,southeast,0.5,No
2017/05/21,13:00,0.377,0.228,0.392,0.362,0.327,0.190,0.152,south-southeast,1.9,No
2017/05/21,13:10,0.379,0.229,0.392,0.362,0.327,0.191,0.152,south,2.8,No
2017/05/21,13:20,0.375,0.228,0.392,0.363,0.327,0.189,0.152,south,2.3,No
2017/05/21,13:30,0.373,0.228,0.393,0.362,0.326,0.189,0.151,south,2.6,No
2017/05/21,13:40,0.372,0.227,0.393,0.363,0.327,0.190,0.153,south-southeast,3.1,No
2017/05/21,13:50,0.371,0.228,0.393,0.364,0.327,0.190,0.152,east,1.3,No
2017/05/21,14:00,0.372,0.229,0.392,0.360,0.328,0.190,0.152,south-southeast,1.9,No
2017/05/21,14:10,0.371,0.232,0.391,0.360,0.328,0.191,0.154,south,4.5,No
2017/05/21,14:20,0.373,0.231,0.392,0.363,0.326,0.190,0.154,south,4.2,No
2017/05/21,14:30,0.373,0.229,0.391,0.363,0.327,0.191,0.154,south,4.1,No
2017/05/21,14:40,0.372,0.229,0.390,0.362,0.329,0.190,0.153,south,4.0,No
2017/05/21,14:50,0.374,0.228,0.390,0.361,0.329,0.191,0.152,south,4.8,No
2017/05/21,15:00,0.377,0.228,0.392,0.367,0.328,0.190,0.152,south,5.9,No
2017/05/21,15:10,0.377,0.228,0.392,0.367,0.329,0.190,0.152,south,4.9,No
2017/05/21,15:20,0.373,0.229,0.392,0.364,0.328,0.190,0.153,south,5.2,No
2017/05/21,15:30,0.376,0.231,0.391,0.364,0.327,0.192,0.154,south,5.3,No
2017/05/21,15:40,0.379,0.231,0.389,0.368,0.329,0.191,0.153,south,6.2,No
2017/05/21,15:50,0.376,0.228,0.394,0.364,0.328,0.191,0.153,south,6.0,No
2017/05/21,16:00,0.373,0.230,0.397,0.366,0.327,0.191,0.155,south,8.6,No
2017/05/21,16:10,0.379,0.230,0.394,0.368,0.328,0.190,0.154,south,10.4,No
2017/05/21,16:20,0.376,0.230,0.394,0.365,0.326,0.191,0.155,south,10.1,No
2017/05/21,16:30,0.375,0.232,0.400,0.364,0.326,0.191,0.154,south,11.2,No
2017/05/21,16:40,0.380,0.229,0.393,0.367,0.331,0.189,0.153,south,10.6,No
2017/05/21,16:50,0.376,0.230,0.393,0.363,0.332,0.191,0.154,south,10.7,No
2017/05/21,17:00,0.372,0.231,0.396,0.364,0.331,0.191,0.153,south,10.2,No
2017/05/21,17:10,0.378,0.229,0.395,0.367,0.329,0.190,0.154,south,11.8,No
2017/05/21,17:20,0.376,0.230,0.394,0.364,0.327,0.190,0.154,south,11.1,No
2017/05/21,17:30,0.373,0.231,0.398,0.364,0.330,0.191,0.153,south,12.1,No
2017/05/21,17:40,0.378,0.229,0.394,0.366,0.332,0.190,0.154,south,12.1,No
2017/05/21,17:50,0.377,0.232,0.392,0.364,0.328,0.190,0.154,south,11.6,No
2017/05/21,18:00,0.374,0.229,0.398,0.367,0.327,0.192,0.154,south,12.3,No
2017/05/21,18:10,0.379,0.229,0.394,0.368,0.331,0.190,0.154,south,12.1,No
2017/05/21,18:20,0.376,0.230,0.391,0.362,0.329,0.190,0.154,south,11.8,No
2017/05/21,18:30,0.373,0.228,0.398,0.365,0.328,0.191,0.154,south,12.2,No
2017/05/21,18:40,0.377,0.231,0.394,0.366,0.332,0.189,0.153,south,12.1,No
2017/05/21,18:50,0.373,0.228,0.391,0.362,0.331,0.192,0.153,south,12.1,No
2017/05/21,19:00,0.377,0.231,0.397,0.367,0.328,0.190,0.153,south-southwest,10.4,No
2017/05/21,19:10,0.375,0.231,0.394,0.365,0.333,0.190,0.152,south,8.4,No
2017/05/21,19:20,0.375,0.229,0.393,0.363,0.327,0.191,0.154,south,9.1,No
2017/05/21,19:30,0.376,0.231,0.396,0.368,0.331,0.191,0.152,south,9.3,No
2017/05/21,19:40,0.376,0.229,0.392,0.367,0.331,0.192,0.153,south,8.8,No
2017/05/21,19:50,0.380,0.230,0.396,0.367,0.328,0.189,0.153,south-southwest,8.3,No
2017/05/21,20:00,0.374,0.230,0.395,0.365,0.330,0.191,0.154,south-southwest,7.5,No
2017/05/21,20:10,0.377,0.231,0.395,0.364,0.326,0.190,0.153,south-southwest,7.3,No
2017/05/21,20:20,0.376,0.230,0.397,0.368,0.332,0.190,0.155,south-southwest,7.0,No
2017/05/21,20:30,0.375,0.230,0.393,0.365,0.329,0.190,0.153,south-southwest,6.4,No
2017/05/21,20:40,0.376,0.229,0.396,0.367,0.329,0.190,0.153,south-southwest,6.4,No
2017/05/21,20:50,0.374,0.231,0.394,0.365,0.331,0.191,0.154,south-southwest,5.7,No
2017/05/21,21:00,0.378,0.229,0.397,0.365,0.327,0.190,0.154,south-southwest,5.4,No
2017/05/21,21:10,0.375,0.231,0.396,0.367,0.331,0.190,0.154,south-southwest,5.1,No
2017/05/21,21:20,0.378,0.230,0.395,0.364,0.328,0.191,0.153,south-southwest,4.5,No
2017/05/21,21:30,0.376,0.231,0.396,0.367,0.332,0.191,0.154,south-southwest,5.7,No
2017/05/21,21:40,0.377,0.232,0.396,0.365,0.329,0.190,0.155,south-southwest,4.4,No
2017/05/21,21:50,0.377,0.231,0.397,0.367,0.330,0.191,0.154,south-southwest,3.9,No
2017/05/21,22:00,0.377,0.231,0.395,0.365,0.329,0.190,0.155,south-southwest,5.9,No
2017/05/21,22:10,0.378,0.231,0.397,0.367,0.330,0.190,0.154,south-southwest,6.8,No
2017/05/21,22:20,0.377,0.231,0.394,0.365,0.330,0.191,0.153,south-southwest,6.2,No
2017/05/21,22:30,0.378,0.231,0.397,0.366,0.330,0.191,0.154,south-southwest,7.3,No
2017/05/21,22:40,0.376,0.231,0.394,0.367,0.331,0.190,0.154,southwest,7.8,No
2017/05/21,22:50,0.379,0.230,0.398,0.365,0.329,0.192,0.155,south-southwest,7.0,No
2017/05/21,23:00,0.374,0.231,0.395,0.367,0.332,0.190,0.154,south-southwest,5.7,No
2017/05/21,23:10,0.379,0.230,0.397,0.365,0.327,0.191,0.154,south-southwest,4.6,No
2017/05/21,23:20,0.375,0.231,0.396,0.367,0.331,0.191,0.153,southwest,2.5,No
2017/05/21,23:30,0.378,0.231,0.398,0.365,0.328,0.191,0.154,southwest,1.7,No
2017/05/21,23:40,0.375,0.230,0.396,0.368,0.330,0.191,0.154,southwest,0.5,No
2017/05/21,23:50,0.379,0.233,0.398,0.364,0.330,0.190,0.154,west,1.2,No
